Orbital Elements at Epoch 2459200.5 (2020-Dec-17.0) TDB
Reference: JPL 27 (heliocentric ecliptic J2000)
Element | Value | Uncertainty (1-sigma) | Units |
e | .2373558207051764 | 4.1908e-08 | |
a | 2.266107518974653 | 6.3211e-09 | au |
q | 1.728233709002253 | 9.6004e-08 | au |
i | .3588652036793086 | 4.1167e-06 | deg |
node | 331.041791714157 | 0.00055028 | deg |
peri | 16.13894068184383 | 0.00055032 | deg |
M | 197.2729689120208 | 7.0076e-06 | deg |
tp | 2459763.717829653260 (2022-Jul-03.21782965) | 2.5415e-05 | TDB |
period | 1246.00330577869 3.41 | 5.2134e-06 1.427e-08 | d yr |
n | .2889237920400364 | 1.2089e-09 | deg/d |
Q | 2.803981328947053 | 7.8214e-09 | au |
|
| | Orbit Determination Parameters
Additional Information
|